Weather History for KLSB - December, 2012

Change the Weather History Date:

Saturday, December 8, 2012

  Actual Average Record
Temperature  
Mean Temperature 50 °F -  
Max Temperature 66 °F 58 °F 66 °F (2012)
Min Temperature 35 °F 24 °F 28 °F (2013)
Degree Days  
Heating Degree Days 14    
Moisture  
Dew Point 29 °F    
Average Humidity 49    
Maximum Humidity 75    
Minimum Humidity 24    
Precipitation  
Precipitation 0.00 in - - ()
Sea Level Pressure  
Sea Level Pressure 29.98 in    
Wind  
Wind Speed 5 mph (WNW)    
Max Wind Speed 17 mph    
Max Gust Speed 24 mph    
Visibility 10 miles    
Events      
Averages and records for this station are not official NWS values.
T = Trace of Precipitation, MM = Missing Value Source: NWS Daily Summary

Daily Weather History Graph

Daily Weather History Graph

Search for Another Location

Airport or City:

Trip Planner

Search our weather history database for the weather conditions in past years. The results will help you decide how hot, cold, wet, or windy it might be!

Date:

Astronomy

Dec. 08, 2012 Rise Set
Actual Time 7:04 AM MST 5:09 PM MST
Civil Twilight 6:37 AM MST 5:36 PM MST
Nautical Twilight 6:06 AM MST 6:07 PM MST
Astronomical Twilight 5:36 AM MST 6:37 PM MST
Moon 1:46 AM MST (12/8) 1:28 PM MST (12/8)
Length of Visible Light 10h 59m
Length of Day
10h 05m
Waning Crescent, 27% of the Moon is Illuminated
Dec 8
Waning Crescent
Dec 13
New
Dec 19
First Quarter
Dec 28
Full
Jan 4
Last Quarter

Hourly Weather History & Observations

Time (MST) Temp. Windchill Dew Point Humidity Pressure Visibility Wind Dir Wind Speed Gust Speed Precip Events Conditions
12:15 AM 48.2 °F - 30.2 °F 50% 29.98 in 10.0 mi West 9.2 mph - N/A   Clear
12:35 AM 44.6 °F 41.4 °F 28.4 °F 53% 29.98 in 10.0 mi NW 5.8 mph - N/A   Clear
12:55 AM 41.0 °F 36.4 °F 26.6 °F 57% 29.98 in 10.0 mi NW 6.9 mph - N/A   Clear
1:15 AM 41.0 °F 36.4 °F 26.6 °F 57% 29.98 in 10.0 mi NW 6.9 mph - N/A   Clear
1:35 AM 41.0 °F 36.4 °F 26.6 °F 57% 29.98 in 10.0 mi WNW 6.9 mph - N/A   Clear
1:55 AM 41.0 °F 37.1 °F 28.4 °F 61% 29.98 in 10.0 mi WNW 5.8 mph - N/A   Clear
2:15 AM 41.0 °F 38.0 °F 28.4 °F 61% 29.98 in 10.0 mi NW 4.6 mph - N/A   Clear
2:35 AM 41.0 °F 38.0 °F 28.4 °F 61% 29.98 in 10.0 mi NW 4.6 mph - N/A   Clear
2:55 AM 37.4 °F 33.8 °F 26.6 °F 65% 29.98 in 10.0 mi NW 4.6 mph - N/A   Clear
3:15 AM 37.4 °F 33.8 °F 26.6 °F 65% 29.98 in 10.0 mi NW 4.6 mph - N/A   Clear
3:35 AM 37.4 °F - 28.4 °F 70% 29.98 in 10.0 mi Calm Calm - N/A   Clear
4:15 AM 35.6 °F - 26.6 °F 70% 29.98 in 10.0 mi Calm Calm - N/A   Clear
4:35 AM 35.6 °F - 26.6 °F 70% 29.98 in 10.0 mi Calm Calm - N/A   Clear
4:55 AM 37.4 °F - 26.6 °F 65% 29.98 in 10.0 mi Calm Calm - N/A   Clear
5:15 AM 37.4 °F - 26.6 °F 65% 29.99 in 10.0 mi Calm Calm - N/A   Clear
5:35 AM 35.6 °F - 26.6 °F 70% 29.99 in 10.0 mi Calm Calm - N/A   Clear
5:55 AM 35.6 °F - 26.6 °F 70% 29.99 in 10.0 mi Calm Calm - N/A   Clear
6:15 AM 35.6 °F - 26.6 °F 70% 30.00 in 10.0 mi Calm Calm - N/A   Clear
6:35 AM 37.4 °F - 28.4 °F 70% 30.00 in 10.0 mi Calm Calm - N/A   Clear
6:55 AM 35.6 °F - 26.6 °F 70% 30.00 in 10.0 mi Calm Calm - N/A   Clear
7:15 AM 37.4 °F - 30.2 °F 75% 30.00 in 10.0 mi Calm Calm - N/A   Clear
7:35 AM 37.4 °F - 28.4 °F 70% 30.01 in 10.0 mi Calm Calm - N/A   Clear
7:55 AM 41.0 °F - 28.4 °F 61% 30.01 in 10.0 mi Calm Calm - N/A   Clear
8:15 AM 41.0 °F - 26.6 °F 57% 30.02 in 10.0 mi Calm Calm - N/A   Clear
8:35 AM 44.6 °F - 28.4 °F 53% 30.02 in 10.0 mi Calm Calm - N/A   Clear
8:55 AM 46.4 °F - 28.4 °F 50% 30.03 in 10.0 mi Calm Calm - N/A   Clear
9:15 AM 48.2 °F - 30.2 °F 50% 30.03 in 10.0 mi Calm Calm - N/A   Clear
9:35 AM 50.0 °F - 32.0 °F 50% 30.04 in 10.0 mi Calm Calm - N/A   Clear
9:55 AM 51.8 °F - 32.0 °F 47% 30.04 in 10.0 mi Calm Calm - N/A   Clear
10:15 AM 53.6 °F - 32.0 °F 44% 30.03 in 10.0 mi Calm Calm - N/A   Clear
10:35 AM 55.4 °F - 32.0 °F 41% 30.03 in 10.0 mi Calm Calm - N/A   Clear
10:55 AM 55.4 °F - 32.0 °F 41% 30.02 in 10.0 mi North 4.6 mph - N/A   Clear
11:15 AM 59.0 °F - 33.8 °F 39% 30.02 in 10.0 mi Calm Calm - N/A   Clear
11:35 AM 60.8 °F - 33.8 °F 36% 30.00 in 10.0 mi NW 5.8 mph - N/A   Clear
11:55 AM 60.8 °F - 33.8 °F 36% 29.99 in 10.0 mi West 5.8 mph - N/A   Clear
12:15 PM 62.6 °F - 33.8 °F 34% 29.98 in 10.0 mi West 8.1 mph - N/A   Clear
12:35 PM 62.6 °F - 33.8 °F 34% 29.97 in 10.0 mi West 9.2 mph - N/A   Clear
12:55 PM 64.4 °F - 32.0 °F 30% 29.95 in 10.0 mi West 5.8 mph 16.1 mph N/A   Clear
1:15 PM 64.4 °F - 32.0 °F 30% 29.95 in 10.0 mi WNW 12.7 mph 17.3 mph N/A   Clear
1:35 PM 64.4 °F - 32.0 °F 30% 29.94 in 10.0 mi West 4.6 mph 16.1 mph N/A   Clear
1:55 PM 66.2 °F - 30.2 °F 26% 29.93 in 10.0 mi WNW 12.7 mph 21.9 mph N/A   Clear
2:15 PM 66.2 °F - 30.2 °F 26% 29.92 in 10.0 mi West 12.7 mph 21.9 mph N/A   Clear
2:35 PM 66.2 °F - 28.4 °F 24% 29.92 in 10.0 mi WNW 17.3 mph 21.9 mph N/A   Clear
2:55 PM 66.2 °F - 28.4 °F 24% 29.92 in 10.0 mi West 13.8 mph 24.2 mph N/A   Clear
3:15 PM 64.4 °F - 28.4 °F 26% 29.92 in 10.0 mi WNW 9.2 mph 17.3 mph N/A   Clear
3:35 PM 64.4 °F - 28.4 °F 26% 29.92 in 10.0 mi West 12.7 mph 17.3 mph N/A   Clear
3:55 PM 64.4 °F - 28.4 °F 26% 29.92 in 10.0 mi NNW 10.4 mph - N/A   Clear
4:15 PM 64.4 °F - 28.4 °F 26% 29.92 in 10.0 mi WNW 9.2 mph - N/A   Clear
4:35 PM 64.4 °F - 26.6 °F 24% 29.92 in 10.0 mi WNW 10.4 mph - N/A   Clear
4:55 PM 62.6 °F - 28.4 °F 27% 29.92 in 10.0 mi NW 6.9 mph - N/A   Clear
5:15 PM 59.0 °F - 26.6 °F 29% 29.93 in 10.0 mi WNW 5.8 mph - N/A   Clear
5:35 PM 55.4 °F - 26.6 °F 33% 29.93 in 10.0 mi WNW 5.8 mph - N/A   Clear
5:55 PM 53.6 °F - 28.4 °F 38% 29.94 in 10.0 mi WNW 3.5 mph - N/A   Clear
6:15 PM 51.8 °F - 28.4 °F 41% 29.94 in 10.0 mi WNW 3.5 mph - N/A   Clear
6:55 PM 51.8 °F - 28.4 °F 41% 29.95 in 10.0 mi WNW 5.8 mph - N/A   Clear
7:15 PM 50.0 °F - 28.4 °F 43% 29.96 in 10.0 mi WNW 4.6 mph - N/A   Clear
7:35 PM 50.0 °F - 28.4 °F 43% 29.96 in 10.0 mi WNW 8.1 mph - N/A   Clear
7:55 PM 46.4 °F 42.9 °F 28.4 °F 50% 29.96 in 10.0 mi WNW 6.9 mph - N/A   Clear
8:15 PM 48.2 °F - 28.4 °F 46% 29.97 in 10.0 mi West 5.8 mph - N/A   Clear
8:35 PM 44.6 °F 40.7 °F 28.4 °F 53% 29.97 in 10.0 mi WNW 6.9 mph - N/A   Clear
8:55 PM 44.6 °F 41.4 °F 28.4 °F 53% 29.97 in 10.0 mi West 5.8 mph - N/A   Clear
9:15 PM 44.6 °F 40.7 °F 28.4 °F 53% 29.97 in 10.0 mi West 6.9 mph - N/A   Clear
9:35 PM 44.6 °F 40.2 °F 28.4 °F 53% 29.97 in 10.0 mi WNW 8.1 mph - N/A   Clear
9:55 PM 44.6 °F 41.4 °F 28.4 °F 53% 29.98 in 10.0 mi NW 5.8 mph - N/A   Clear
10:15 PM 42.8 °F 38.6 °F 26.6 °F 53% 29.98 in 10.0 mi North 6.9 mph - N/A   Clear
10:35 PM 42.8 °F 40.1 °F 26.6 °F 53% 29.99 in 10.0 mi NW 4.6 mph - N/A   Clear
10:55 PM 42.8 °F - 26.6 °F 53% 29.99 in 10.0 mi Calm Calm - N/A   Clear
11:15 PM 41.0 °F 39.0 °F 28.4 °F 61% 29.98 in 10.0 mi West 3.5 mph - N/A   Clear
11:35 PM 42.8 °F 40.1 °F 28.4 °F 57% 29.99 in 10.0 mi West 4.6 mph - N/A   Clear
11:55 PM 41.0 °F 38.0 °F 26.6 °F 57% 29.99 in 10.0 mi NW 4.6 mph - N/A   Clear